This is the latest recevied weather packets stored in our database for station/object KF7SOJ. If no packets are shown the sender has not sent any weather packets the latest 10 day(s).
| Time | Temp. | Humidity | Pressure | Rain* | Wind** | Luminosity | Snow |
|---|---|---|---|---|---|---|---|
| 1778097253 | 15° C | 23% | 929.7 hPa | 0 mm | - | 712 W/m² | - |
| 1778096949 | 14.44° C | 24% | 929.9 hPa | 0 mm | - | 895 W/m² | - |
| 1778096646 | 14.44° C | 24% | 930 hPa | 0 mm | - | 907 W/m² | - |
| 1778096343 | 14.44° C | 23% | 930.2 hPa | 0 mm | - | 641 W/m² | - |
| 1778096041 | 13.89° C | 22% | 930.2 hPa | 0 mm | - | 719 W/m² | - |
| 1778095737 | 14.44° C | 23% | 930.3 hPa | 0 mm | - | 681 W/m² | - |
| 1778095434 | 14.44° C | 23% | 930.1 hPa | 0 mm | - | 908 W/m² | - |
| 1778095131 | 13.89° C | 23% | 930.5 hPa | 0 mm | - | 1045 W/m² | - |
| 1778094827 | 13.89° C | 21% | 930.6 hPa | 0 mm | - | 1003 W/m² | - |
| 1778094524 | 14.44° C | 22% | 930.5 hPa | 0 mm | - | 993 W/m² | - |
| 1778094220 | 13.89° C | 23% | 930.8 hPa | 0 mm | - | 989 W/m² | - |
| 1778093917 | 13.33° C | 23% | 930.8 hPa | 0 mm | - | 976 W/m² | - |
| 1778093614 | 12.78° C | 24% | 930.9 hPa | 0 mm | - | 976 W/m² | - |
| 1778093311 | 13.33° C | 23% | 931.1 hPa | 0 mm | - | 970 W/m² | - |
| 1778093009 | 13.33° C | 22% | 931.4 hPa | 0 mm | - | 966 W/m² | - |
| 1778092706 | 12.78° C | 23% | 931.4 hPa | 0 mm | - | 963 W/m² | - |
| 1778092401 | 12.78° C | 25% | 931.5 hPa | 0 mm | - | 961 W/m² | - |
| 1778092099 | 13.33° C | 23% | 931.5 hPa | 0 mm | - | 909 W/m² | - |
| 1778091796 | 12.22° C | 26% | 931.5 hPa | 0 mm | - | 961 W/m² | - |
| 1778091494 | 12.22° C | 24% | 931.7 hPa | 0 mm | - | 964 W/m² | - |
| 1778091191 | 12.22° C | 25% | 931.9 hPa | 0 mm | - | 926 W/m² | - |
| 1778090888 | 12.22° C | 26% | 932 hPa | 0 mm | - | 905 W/m² | - |
| 1778090584 | 12.22° C | 25% | 932 hPa | 0 mm | - | 871 W/m² | - |
| 1778090280 | 11.67° C | 26% | 932.3 hPa | 0 mm | - | 731 W/m² | - |
| 1778089977 | 12.22° C | 27% | 932.4 hPa | 0 mm | - | 988 W/m² | - |
* Rain latest hour (hover to see other rain measurements)
** Current wind speed in m/s (hover to see current wind gust speed)